Home > Time Zones > World Clock > Weather > India > Moga > Past weeks

Flag for India Weather past 2 weeks in Moga, Punjab, India

Now
63 °F

Haze.


Feels Like: 63 °F
Forecast: 38 / 64 °F
Wind: 9 mph from West

Location: Amritsar Airport

Current Time: Jan 28, 2015 at 3:34:31 PM

Latest Report: Jan 28, 2015 at 3:00 PM


Visibility: 3 mi

Pressure: 30.04 "Hg

Humidity: 42%

Dew point: 39 °F

Location of MogaLocation

Historic Weather in Moga — Graph

°F

Moga temperature yesterday

Maximum temperature yesterday: 55 °F (at 2:30 PM)
Minimum temperature yesterday: 39 °F (at 7:00 AM)
Average temperature yesterday: 46 °F

Past Weeks' High & Low Weather Summary

 TemperatureHumidityPressure
High68 °F (Jan 17, 2:00 PM)100% (Jan 14, 12:00 AM)30.24 "Hg (Jan 14, 12:00 AM)
Low34 °F (Jan 28, 8:00 AM)42% (Jan 28, 2:00 PM)29.95 "Hg (Jan 13, 4:30 PM)
Average52 °F87%30.11 "Hg
* Reported Jan 13 1:30 PM — Jan 28 2:00 PM, Moga, Weather by CustomWeather, © 2014

Note: Actual official high and low records may vary slightly from our data, if they occured in-between our weather recording intervals... More about our weather records

Advertising

Moga weather history for previous 24 hours

 ConditionsComfort  
Time TempWeatherWind HumidityBarometerVisibility
2:00 PM
Jan 28
63 °FHaze.9 mph42%30.04 "Hg3 mi
1:30 PM61 °FHaze.8 mph55%30.07 "Hg3 mi
1:00 PM59 °FHaze.8 mph55%30.07 "Hg3 mi
12:30 PM57 °FHaze.9 mph59%30.09 "Hg3 mi
12:00 PM57 °FHaze.8 mph59%30.09 "Hg2 mi
11:30 AM55 °FHaze.1 mph67%30.12 "Hg2 mi
10:30 AM50 °FFog.3 mph82%30.12 "Hg2 mi
10:00 AM46 °FFog.No wind100%30.12 "Hg2 mi
8:30 AM37 °FFog.No wind100%30.09 "Hg1 mi
8:00 AM34 °FFog.No wind100%30.07 "Hg1 mi
6:00 AM36 °FFog.No wind100%30.07 "Hg0 mi
5:00 AM36 °FFog.No wind100%30.07 "Hg0 mi
4:30 AM37 °FFog.No wind100%30.07 "Hg0 mi
3:30 AM37 °FFog.No wind100%30.09 "Hg0 mi
3:00 AM37 °FFog.No wind100%30.09 "Hg0 mi
2:30 AM36 °FFog.No wind100%30.09 "Hg0 mi
2:00 AM37 °FFog.No wind100%30.12 "Hg0 mi
1:30 AM39 °FFog.No wind100%30.12 "Hg0 mi
1:00 AM39 °FFog.No wind100%30.12 "Hg0 mi
12:30 AM39 °FFog.No wind100%30.12 "Hg0 mi
12:00 AM39 °FFog.No wind100%30.15 "Hg0 mi
9:00 PM
Jan 27
45 °FLight fog.No wind100%30.12 "Hg1 mi
8:00 PM48 °FFog.No wind94%30.12 "Hg1 mi
6:30 PM50 °FFog.No wind94%30.12 "Hg1 mi
6:00 PM52 °FFog.No wind88%30.12 "Hg1 mi
5:30 PM54 °FFog.1 mph88%30.12 "Hg1 mi
5:00 PM55 °FFog.7 mph82%30.12 "Hg1 mi
4:30 PM55 °FFog.8 mph82%30.12 "Hg1 mi
4:00 PM55 °FFog.6 mph82%30.12 "Hg1 mi
3:30 PM55 °FFog.3 mph82%30.12 "Hg1 mi
3:00 PM55 °FFog.2 mph82%30.15 "Hg1 mi
Weather by CustomWeather, © 2014

See weather overviewHow to use our weather pages